sat.trackr.live / text

‹ back to catalog

STARLINK-1821

NORAD 46718 · 2020-073BA

PAYLOAD ACTIVE UNKNOWN

§ Identity

Operator
Country
US
Launch date
2020-10-18
Launch site
AFETR
Launch vehicle
Mass (kg)
RCS (m²)

Purposes: comms

External: N2YO · Heavens-Above · Gunter

§ Orbital elements

Epoch: 2026-09-20T00:04:28.842240Z

Period
91.68 min
Inclination
53.0345°
Eccentricity
0.0002476
Mean motion
15.70620208 rev/d
Perigee alt
355.5 km
Apogee alt
358.8 km
Semi-major
6,735.3 km
B*
9.3672e-4
RAAN
10.3238°
Arg perigee
324.3893°
Mean anomaly
35.6958°
Rev number
32,753

§ Raw data

STARLINK-18211 46718U 20073BA  26263.00311160  .00118994  00000+0  93672-3 0  99902 46718  53.0345  10.3238 0002476 324.3893  35.6958 15.70620208327533

JSON: /api/v1/satellites/46718 · /tle

For live sub-satellite position, see the globe view (requires WebGL).

§ Visibility from observer

Set your observer location to see the next 7 days of passes ≥ 10°. The values pass through the URL so the page stays shareable.

No JS? Fill the form by hand. The geolocation button needs JavaScript.